Year,Month,Day,Hour,Minute,Value (Times are PST for windspeed in km/hr)
2008,10,07,00,00,9.80
2008,10,07,00,01,11.30
2008,10,07,00,02,9.90
2008,10,07,00,03,10.10
2008,10,07,00,04,8.00
2008,10,07,00,05,9.00
2008,10,07,00,06,12.00
2008,10,07,00,07,7.00
2008,10,07,00,08,10.30
2008,10,07,00,09,16.50
2008,10,07,00,10,9.20
2008,10,07,00,11,11.20
2008,10,07,00,12,9.20
2008,10,07,00,13,4.70
2008,10,07,00,14,3.20
2008,10,07,00,15,12.50
2008,10,07,00,16,16.70
2008,10,07,00,17,19.30
2008,10,07,00,18,18.30
2008,10,07,00,19,17.60
2008,10,07,00,20,8.90
2008,10,07,00,21,5.50
2008,10,07,00,22,4.10
2008,10,07,00,23,5.20
2008,10,07,00,24,4.80
2008,10,07,00,25,5.60
2008,10,07,00,26,2.90
2008,10,07,00,27,3.80
2008,10,07,00,28,3.30
2008,10,07,00,29,7.00
2008,10,07,00,30,1.30
2008,10,07,00,31,0.60
2008,10,07,00,32,6.10
2008,10,07,00,33,6.30
2008,10,07,00,34,4.00
2008,10,07,00,35,6.90
2008,10,07,00,36,5.50
2008,10,07,00,37,8.70
2008,10,07,00,38,6.40
2008,10,07,00,39,4.20
2008,10,07,00,40,4.10
2008,10,07,00,41,4.70
2008,10,07,00,42,2.20
2008,10,07,00,43,5.90
2008,10,07,00,44,7.40
2008,10,07,00,45,16.60
2008,10,07,00,46,13.10
2008,10,07,00,47,4.50
2008,10,07,00,48,9.80
2008,10,07,00,49,7.90
2008,10,07,00,50,15.60
2008,10,07,00,51,7.90
2008,10,07,00,52,8.00
2008,10,07,00,53,16.00
2008,10,07,00,54,15.30
2008,10,07,00,55,17.80
2008,10,07,00,56,12.50
2008,10,07,00,57,15.70
2008,10,07,00,58,8.90
2008,10,07,00,59,7.80
2008,10,07,01,00,6.40
2008,10,07,01,01,17.50
2008,10,07,01,02,14.80
2008,10,07,01,03,25.80
2008,10,07,01,04,20.20
2008,10,07,01,05,22.20
2008,10,07,01,06,26.30
2008,10,07,01,07,20.60
2008,10,07,01,08,16.80
2008,10,07,01,09,27.40
2008,10,07,01,10,23.80
2008,10,07,01,11,22.80
2008,10,07,01,12,27.40
2008,10,07,01,13,15.90
2008,10,07,01,14,19.80
2008,10,07,01,15,22.70
2008,10,07,01,16,40.20
2008,10,07,01,17,35.90
2008,10,07,01,18,28.50
2008,10,07,01,19,19.30
2008,10,07,01,20,11.80
2008,10,07,01,21,19.60
2008,10,07,01,22,24.90
2008,10,07,01,23,16.80
2008,10,07,01,24,23.20
2008,10,07,01,25,36.00
2008,10,07,01,26,25.30
2008,10,07,01,27,32.70
2008,10,07,01,28,24.10
2008,10,07,01,29,17.90
2008,10,07,01,30,35.20
2008,10,07,01,31,31.80
2008,10,07,01,32,26.80
2008,10,07,01,33,27.90
2008,10,07,01,34,32.50
2008,10,07,01,35,30.20
2008,10,07,01,36,32.90
2008,10,07,01,37,24.60
2008,10,07,01,38,20.30
2008,10,07,01,39,28.90
2008,10,07,01,40,22.90
2008,10,07,01,41,21.60
2008,10,07,01,42,26.40
2008,10,07,01,43,33.10
2008,10,07,01,44,42.20
2008,10,07,01,45,31.40
2008,10,07,01,46,28.50
2008,10,07,01,47,33.40
2008,10,07,01,48,34.00
2008,10,07,01,49,27.70
2008,10,07,01,50,24.10
2008,10,07,01,51,29.60
2008,10,07,01,52,43.80
2008,10,07,01,53,29.60
2008,10,07,01,54,40.20
2008,10,07,01,55,43.40
2008,10,07,01,56,30.20
2008,10,07,01,57,24.30
2008,10,07,01,58,22.20
2008,10,07,01,59,25.00
2008,10,07,02,00,17.90
2008,10,07,02,01,21.70
2008,10,07,02,02,26.90
2008,10,07,02,03,22.40
2008,10,07,02,04,23.50
2008,10,07,02,05,19.90
2008,10,07,02,06,29.30
2008,10,07,02,07,22.50
2008,10,07,02,08,26.90
2008,10,07,02,09,20.70
2008,10,07,02,10,18.80
2008,10,07,02,11,23.00
2008,10,07,02,12,30.60
2008,10,07,02,13,31.30
2008,10,07,02,14,29.20
2008,10,07,02,15,34.40
2008,10,07,02,16,29.40
2008,10,07,02,17,35.20
2008,10,07,02,18,31.20
2008,10,07,02,19,29.00
2008,10,07,02,20,31.10
2008,10,07,02,21,38.10
2008,10,07,02,22,33.50
2008,10,07,02,23,24.30
2008,10,07,02,24,20.20
2008,10,07,02,25,24.60
2008,10,07,02,26,22.80
2008,10,07,02,27,33.90
2008,10,07,02,28,24.40
2008,10,07,02,29,22.10
2008,10,07,02,30,28.40
2008,10,07,02,31,31.10
2008,10,07,02,32,22.70
2008,10,07,02,33,31.60
2008,10,07,02,34,32.50
2008,10,07,02,35,30.00
2008,10,07,02,36,29.70
2008,10,07,02,37,25.90
2008,10,07,02,38,22.40
2008,10,07,02,39,23.50
2008,10,07,02,40,19.90
2008,10,07,02,41,27.90
2008,10,07,02,42,20.20
2008,10,07,02,43,22.40
2008,10,07,02,44,24.30
2008,10,07,02,45,25.70
2008,10,07,02,46,26.30
2008,10,07,02,47,19.30
2008,10,07,02,48,19.70
2008,10,07,02,49,19.70
2008,10,07,02,50,21.70
2008,10,07,02,51,24.70
2008,10,07,02,52,29.60
2008,10,07,02,53,20.20
2008,10,07,02,54,26.40
2008,10,07,02,55,29.70
2008,10,07,02,56,20.70
2008,10,07,02,57,24.00
2008,10,07,02,58,22.80
2008,10,07,02,59,15.50
2008,10,07,03,00,20.30
2008,10,07,03,01,21.70
2008,10,07,03,02,21.40
2008,10,07,03,03,20.40
2008,10,07,03,04,15.80
2008,10,07,03,05,15.00
2008,10,07,03,06,20.70
2008,10,07,03,07,12.40
2008,10,07,03,08,12.80
2008,10,07,03,09,13.90
2008,10,07,03,10,20.80
2008,10,07,03,11,17.40
2008,10,07,03,12,18.10
2008,10,07,03,13,15.40
2008,10,07,03,14,12.70
2008,10,07,03,15,21.60
2008,10,07,03,16,20.50
2008,10,07,03,17,33.60
2008,10,07,03,18,26.00
2008,10,07,03,19,21.30
2008,10,07,03,20,29.90
2008,10,07,03,21,15.60
2008,10,07,03,22,14.80
2008,10,07,03,23,15.10
2008,10,07,03,24,17.30
2008,10,07,03,25,14.90
2008,10,07,03,26,12.40
2008,10,07,03,27,21.60
2008,10,07,03,28,20.40
2008,10,07,03,29,10.00
2008,10,07,03,30,23.00
2008,10,07,03,31,18.60
2008,10,07,03,32,13.90
2008,10,07,03,33,19.10
2008,10,07,03,34,22.10
2008,10,07,03,35,13.20
2008,10,07,03,36,17.70
2008,10,07,03,37,13.10
2008,10,07,03,38,11.40
2008,10,07,03,39,11.50
2008,10,07,03,40,14.80
2008,10,07,03,41,21.90
2008,10,07,03,42,15.20
2008,10,07,03,43,14.40
2008,10,07,03,44,16.60
2008,10,07,03,45,15.50
2008,10,07,03,46,15.20
2008,10,07,03,47,24.60
2008,10,07,03,48,24.90
2008,10,07,03,49,15.60
2008,10,07,03,50,15.90
2008,10,07,03,51,18.00
2008,10,07,03,52,21.30
2008,10,07,03,53,23.30
2008,10,07,03,54,22.60
2008,10,07,03,55,9.80
2008,10,07,03,56,8.90
2008,10,07,03,57,17.20
2008,10,07,03,58,15.10
2008,10,07,03,59,5.90
2008,10,07,04,00,11.70
2008,10,07,04,01,9.70
2008,10,07,04,02,13.10
2008,10,07,04,03,7.70
2008,10,07,04,04,4.50
2008,10,07,04,05,3.50
2008,10,07,04,06,2.40
2008,10,07,04,07,4.90
2008,10,07,04,08,8.10
2008,10,07,04,09,6.00
2008,10,07,04,10,0.40
2008,10,07,04,11,5.40
2008,10,07,04,12,8.60
2008,10,07,04,13,4.60
2008,10,07,04,14,9.10
2008,10,07,04,15,13.70
2008,10,07,04,16,15.10
2008,10,07,04,17,12.60
2008,10,07,04,18,16.50
2008,10,07,04,19,15.00
2008,10,07,04,20,12.30
2008,10,07,04,21,4.30
2008,10,07,04,22,8.60
2008,10,07,04,23,11.50
2008,10,07,04,24,3.90
2008,10,07,04,25,0.70
2008,10,07,04,26,1.90
2008,10,07,04,27,3.40
2008,10,07,04,28,5.50
2008,10,07,04,29,11.60
2008,10,07,04,30,21.20
2008,10,07,04,31,9.40
2008,10,07,04,32,9.30
2008,10,07,04,33,8.30
2008,10,07,04,34,5.80
2008,10,07,04,35,5.70
2008,10,07,04,36,11.00
2008,10,07,04,37,5.10
2008,10,07,04,38,4.60
2008,10,07,04,39,0.30
2008,10,07,04,40,0.00
2008,10,07,04,41,0.70
2008,10,07,04,42,0.20
2008,10,07,04,43,0.00
2008,10,07,04,44,3.20
2008,10,07,04,45,7.30
2008,10,07,04,46,14.40
2008,10,07,04,47,10.40
2008,10,07,04,48,9.70
2008,10,07,04,49,7.40
2008,10,07,04,50,7.10
2008,10,07,04,51,5.20
2008,10,07,04,52,4.40
2008,10,07,04,53,8.60
2008,10,07,04,54,5.50
2008,10,07,04,55,6.80
2008,10,07,04,56,5.80
2008,10,07,04,57,7.30
2008,10,07,04,58,8.10
2008,10,07,04,59,8.40
2008,10,07,05,00,6.80
2008,10,07,05,01,13.60
2008,10,07,05,02,20.80
2008,10,07,05,03,17.90
2008,10,07,05,04,16.10
2008,10,07,05,05,14.70
2008,10,07,05,06,17.80
2008,10,07,05,07,13.50
2008,10,07,05,08,18.40
2008,10,07,05,09,15.50
2008,10,07,05,10,11.00
2008,10,07,05,11,15.30
2008,10,07,05,12,14.60
2008,10,07,05,13,24.00
2008,10,07,05,14,19.10
2008,10,07,05,15,13.60
2008,10,07,05,16,10.80
2008,10,07,05,17,8.60
2008,10,07,05,18,7.50
2008,10,07,05,19,4.90
2008,10,07,05,20,3.50
2008,10,07,05,21,3.70
2008,10,07,05,22,3.00
2008,10,07,05,23,4.40
2008,10,07,05,24,5.70
2008,10,07,05,25,2.60
2008,10,07,05,26,1.50
2008,10,07,05,27,1.10
2008,10,07,05,28,1.50
2008,10,07,05,29,1.20
2008,10,07,05,30,3.30
2008,10,07,05,31,0.10
2008,10,07,05,32,1.00
2008,10,07,05,33,0.10
2008,10,07,05,34,1.20
2008,10,07,05,35,0.30
2008,10,07,05,36,1.00
2008,10,07,05,37,0.10
2008,10,07,05,38,0.00
2008,10,07,05,39,0.70
2008,10,07,05,40,0.90
2008,10,07,05,41,2.10
2008,10,07,05,42,3.60
2008,10,07,05,43,2.90
2008,10,07,05,44,3.40
2008,10,07,05,45,1.40
2008,10,07,05,46,0.40
2008,10,07,05,47,1.30
2008,10,07,05,48,0.90
2008,10,07,05,49,0.00
2008,10,07,05,50,0.80
2008,10,07,05,51,3.40
2008,10,07,05,52,4.40
2008,10,07,05,53,4.40
2008,10,07,05,54,4.90
2008,10,07,05,55,3.00
2008,10,07,05,56,0.50
2008,10,07,05,57,1.20
2008,10,07,05,58,3.10
2008,10,07,05,59,3.00
2008,10,07,06,00,3.70
2008,10,07,06,01,5.30
2008,10,07,06,02,5.80
2008,10,07,06,03,2.80
2008,10,07,06,04,2.90
2008,10,07,06,05,4.70
2008,10,07,06,06,2.30
2008,10,07,06,07,0.60
2008,10,07,06,08,0.10
2008,10,07,06,09,1.50
2008,10,07,06,10,3.10
2008,10,07,06,11,2.80
2008,10,07,06,12,0.60
2008,10,07,06,13,1.00
2008,10,07,06,14,0.60
2008,10,07,06,15,0.40
2008,10,07,06,16,1.60
2008,10,07,06,17,3.90
2008,10,07,06,18,3.50
2008,10,07,06,19,0.70
2008,10,07,06,20,0.20
2008,10,07,06,21,0.60
2008,10,07,06,22,0.10
2008,10,07,06,23,0.00
2008,10,07,06,24,0.00
2008,10,07,06,25,0.10
2008,10,07,06,26,1.20
2008,10,07,06,27,0.00
2008,10,07,06,28,0.80
2008,10,07,06,29,2.30
2008,10,07,06,30,1.60
2008,10,07,06,31,0.40
2008,10,07,06,32,0.50
2008,10,07,06,33,2.90
2008,10,07,06,34,0.70
2008,10,07,06,35,0.40
2008,10,07,06,36,0.00
2008,10,07,06,37,1.10
2008,10,07,06,38,3.70
2008,10,07,06,39,5.90
2008,10,07,06,40,2.80
2008,10,07,06,41,1.00
2008,10,07,06,42,2.10
2008,10,07,06,43,1.40
2008,10,07,06,44,2.20
2008,10,07,06,45,5.40
2008,10,07,06,46,3.60
2008,10,07,06,47,1.30
2008,10,07,06,48,0.50
2008,10,07,06,49,1.10
2008,10,07,06,50,1.00
2008,10,07,06,51,1.80
2008,10,07,06,52,4.10
2008,10,07,06,53,5.80
2008,10,07,06,54,6.00
2008,10,07,06,55,6.20
2008,10,07,06,56,4.30
2008,10,07,06,57,5.30
2008,10,07,06,58,6.40
2008,10,07,06,59,6.70
2008,10,07,07,00,5.00
2008,10,07,07,01,5.60
2008,10,07,07,02,4.80
2008,10,07,07,03,3.70
2008,10,07,07,04,6.10
2008,10,07,07,05,7.00
2008,10,07,07,06,6.50
2008,10,07,07,07,4.30
2008,10,07,07,08,6.50
2008,10,07,07,09,8.60
2008,10,07,07,10,10.90
2008,10,07,07,11,9.30
2008,10,07,07,12,5.80
2008,10,07,07,13,5.60
2008,10,07,07,14,6.30
2008,10,07,07,15,5.60
2008,10,07,07,16,10.30
2008,10,07,07,17,5.30
2008,10,07,07,18,9.70
2008,10,07,07,19,7.90
2008,10,07,07,20,14.00
2008,10,07,07,21,9.30
2008,10,07,07,22,11.90
2008,10,07,07,23,12.70
2008,10,07,07,24,6.70
2008,10,07,07,25,5.30
2008,10,07,07,26,8.10
2008,10,07,07,27,5.00
2008,10,07,07,28,5.00
2008,10,07,07,29,3.20
2008,10,07,07,30,1.40
2008,10,07,07,31,2.60
2008,10,07,07,32,3.20
2008,10,07,07,33,4.00
2008,10,07,07,34,9.50
2008,10,07,07,35,3.20
2008,10,07,07,36,1.20
2008,10,07,07,37,3.30
2008,10,07,07,38,3.00
2008,10,07,07,39,4.30
2008,10,07,07,40,6.00
2008,10,07,07,41,7.20
2008,10,07,07,42,6.50
2008,10,07,07,43,2.10
2008,10,07,07,44,4.20
2008,10,07,07,45,3.90
2008,10,07,07,46,6.90
2008,10,07,07,47,6.30
2008,10,07,07,48,5.50
2008,10,07,07,49,5.30
2008,10,07,07,50,4.40
2008,10,07,07,51,2.40
2008,10,07,07,52,2.10
2008,10,07,07,53,0.00
2008,10,07,07,54,2.40
2008,10,07,07,55,1.60
2008,10,07,07,56,3.90
2008,10,07,07,57,2.70
2008,10,07,07,58,3.20
2008,10,07,07,59,3.90
2008,10,07,08,00,3.50
2008,10,07,08,01,3.50
2008,10,07,08,02,3.60
2008,10,07,08,03,0.00
2008,10,07,08,04,4.80
2008,10,07,08,05,7.80
2008,10,07,08,06,9.40
2008,10,07,08,07,10.20
2008,10,07,08,08,13.10
2008,10,07,08,09,11.90
2008,10,07,08,10,17.70
2008,10,07,08,11,14.10
2008,10,07,08,12,9.90
2008,10,07,08,13,8.30
2008,10,07,08,14,8.10
2008,10,07,08,15,7.90
2008,10,07,08,16,8.90
2008,10,07,08,17,12.30
2008,10,07,08,18,6.40
2008,10,07,08,19,16.50
2008,10,07,08,20,15.50
2008,10,07,08,21,13.40
2008,10,07,08,22,12.30
2008,10,07,08,23,15.20
2008,10,07,08,24,11.10
2008,10,07,08,25,9.30
2008,10,07,08,26,9.70
2008,10,07,08,27,9.70
2008,10,07,08,28,8.40
2008,10,07,08,29,8.50
2008,10,07,08,30,8.10
2008,10,07,08,31,6.40
2008,10,07,08,32,3.80
2008,10,07,08,33,5.70
2008,10,07,08,34,10.90
2008,10,07,08,35,21.40
2008,10,07,08,36,13.10
2008,10,07,08,37,12.60
2008,10,07,08,38,13.40
2008,10,07,08,39,9.70
2008,10,07,08,40,10.00
2008,10,07,08,41,7.10
2008,10,07,08,42,6.20
2008,10,07,08,43,13.60
2008,10,07,08,44,12.80
2008,10,07,08,45,7.40
2008,10,07,08,46,6.60
2008,10,07,08,47,8.00
2008,10,07,08,48,8.90
2008,10,07,08,49,8.10
2008,10,07,08,50,3.60
2008,10,07,08,51,2.30
2008,10,07,08,52,6.40
2008,10,07,08,53,9.10
2008,10,07,08,54,5.10
2008,10,07,08,55,4.10
2008,10,07,08,56,7.60
2008,10,07,08,57,9.60
2008,10,07,08,58,16.90
2008,10,07,08,59,9.00
2008,10,07,09,00,9.70
2008,10,07,09,01,13.80
2008,10,07,09,02,15.20
2008,10,07,09,03,9.60
2008,10,07,09,04,10.00
2008,10,07,09,05,13.00
2008,10,07,09,06,15.80
2008,10,07,09,07,9.50
2008,10,07,09,08,13.50
2008,10,07,09,09,20.60
2008,10,07,09,10,15.80
2008,10,07,09,11,12.90
2008,10,07,09,12,14.80
2008,10,07,09,13,11.20
2008,10,07,09,14,12.90
2008,10,07,09,15,19.60
2008,10,07,09,16,8.60
2008,10,07,09,17,11.70
2008,10,07,09,18,13.70
2008,10,07,09,19,9.80
2008,10,07,09,20,7.50
2008,10,07,09,21,7.00
2008,10,07,09,22,10.70
2008,10,07,09,23,8.90
2008,10,07,09,24,11.30
2008,10,07,09,25,8.00
2008,10,07,09,26,13.20
2008,10,07,09,27,15.10
2008,10,07,09,28,13.00
2008,10,07,09,29,5.60
2008,10,07,09,30,6.10
2008,10,07,09,31,7.70
2008,10,07,09,32,17.10
2008,10,07,09,33,14.20
2008,10,07,09,34,7.60
2008,10,07,09,35,9.40
2008,10,07,09,36,13.40
2008,10,07,09,37,6.00
2008,10,07,09,38,11.30
2008,10,07,09,39,8.30
2008,10,07,09,40,8.00
2008,10,07,09,41,7.00
2008,10,07,09,42,8.30
2008,10,07,09,43,5.10
2008,10,07,09,44,3.90
2008,10,07,09,45,8.40
2008,10,07,09,46,8.30
2008,10,07,09,47,9.40
2008,10,07,09,48,14.60
2008,10,07,09,49,14.50
2008,10,07,09,50,15.00
2008,10,07,09,51,8.80
2008,10,07,09,52,9.20
2008,10,07,09,53,14.10
2008,10,07,09,54,9.40
2008,10,07,09,55,7.60
2008,10,07,09,56,17.70
2008,10,07,09,57,10.20
2008,10,07,09,58,8.90
2008,10,07,09,59,6.90
2008,10,07,10,00,5.20
2008,10,07,10,01,6.00
2008,10,07,10,02,12.30
2008,10,07,10,03,11.30
2008,10,07,10,04,10.70
2008,10,07,10,05,8.50
2008,10,07,10,06,5.70
2008,10,07,10,07,8.20
2008,10,07,10,08,13.70
2008,10,07,10,09,9.50
2008,10,07,10,10,6.90
2008,10,07,10,11,3.80
2008,10,07,10,12,12.40
2008,10,07,10,13,8.30
2008,10,07,10,14,4.80
2008,10,07,10,15,6.80
2008,10,07,10,16,9.40
2008,10,07,10,17,7.40
2008,10,07,10,18,3.20
2008,10,07,10,19,5.20
2008,10,07,10,20,9.00
2008,10,07,10,21,6.20
2008,10,07,10,22,8.80
2008,10,07,10,23,7.20
2008,10,07,10,24,9.10
2008,10,07,10,25,11.90
2008,10,07,10,26,16.30
2008,10,07,10,27,12.40
2008,10,07,10,28,15.50
2008,10,07,10,29,17.90
2008,10,07,10,30,13.30
2008,10,07,10,31,14.70
2008,10,07,10,32,16.80
2008,10,07,10,33,13.00
2008,10,07,10,34,17.40
2008,10,07,10,35,18.80
2008,10,07,10,36,12.40
2008,10,07,10,37,6.90
2008,10,07,10,38,12.30
2008,10,07,10,39,7.60
2008,10,07,10,40,4.50
2008,10,07,10,41,5.00
2008,10,07,10,42,9.30
2008,10,07,10,43,12.50
2008,10,07,10,44,7.40
2008,10,07,10,45,7.20
2008,10,07,10,46,7.90
2008,10,07,10,47,8.90
2008,10,07,10,48,10.80
2008,10,07,10,49,9.40
2008,10,07,10,50,12.40
2008,10,07,10,51,16.50
2008,10,07,10,52,11.60
2008,10,07,10,53,12.50
2008,10,07,10,54,6.90
2008,10,07,10,55,8.40
2008,10,07,10,56,5.60
2008,10,07,10,57,2.80
2008,10,07,10,58,7.70
2008,10,07,10,59,6.30
2008,10,07,11,00,8.50
2008,10,07,11,01,16.90
2008,10,07,11,02,6.80
2008,10,07,11,03,11.20
2008,10,07,11,04,11.40
2008,10,07,11,05,9.00
2008,10,07,11,06,8.10
2008,10,07,11,07,11.90
2008,10,07,11,08,10.70
2008,10,07,11,09,10.50
2008,10,07,11,10,9.80
2008,10,07,11,11,8.80
2008,10,07,11,12,3.00
2008,10,07,11,13,5.10
2008,10,07,11,14,11.30
2008,10,07,11,15,13.90
2008,10,07,11,16,18.70
2008,10,07,11,17,7.20
2008,10,07,11,18,11.90
2008,10,07,11,19,17.50
2008,10,07,11,20,11.70
2008,10,07,11,21,6.30
2008,10,07,11,22,8.20
2008,10,07,11,23,4.30
2008,10,07,11,24,6.00
2008,10,07,11,25,7.60
2008,10,07,11,26,6.70
2008,10,07,11,27,9.80
2008,10,07,11,28,5.40
2008,10,07,11,29,6.10
2008,10,07,11,30,10.20
2008,10,07,11,31,9.20
2008,10,07,11,32,8.90
2008,10,07,11,33,12.80
2008,10,07,11,34,9.50
2008,10,07,11,35,8.10
2008,10,07,11,36,11.90
2008,10,07,11,37,13.30
2008,10,07,11,38,6.20
2008,10,07,11,39,6.60
2008,10,07,11,40,9.70
2008,10,07,11,41,8.50
2008,10,07,11,42,7.70
2008,10,07,11,43,14.00
2008,10,07,11,44,10.80
2008,10,07,11,45,7.50
2008,10,07,11,46,8.10
2008,10,07,11,47,18.60
2008,10,07,11,48,10.10
2008,10,07,11,49,7.30
2008,10,07,11,50,13.70
2008,10,07,11,51,8.60
2008,10,07,11,52,8.40
2008,10,07,11,53,11.70
2008,10,07,11,54,13.30
2008,10,07,11,55,9.10
2008,10,07,11,56,7.70
2008,10,07,11,57,7.90
2008,10,07,11,58,12.20
2008,10,07,11,59,8.40
2008,10,07,12,00,8.10
2008,10,07,12,01,11.50
2008,10,07,12,02,10.40
2008,10,07,12,03,7.20
2008,10,07,12,04,4.30
2008,10,07,12,05,6.10
2008,10,07,12,06,7.50
2008,10,07,12,07,4.20
2008,10,07,12,08,2.60
2008,10,07,12,09,13.90
2008,10,07,12,10,11.60
2008,10,07,12,11,16.10
2008,10,07,12,12,17.10
2008,10,07,12,13,21.00
2008,10,07,12,14,20.00
2008,10,07,12,15,7.30
2008,10,07,12,16,12.10
2008,10,07,12,17,18.30
2008,10,07,12,18,15.90
2008,10,07,12,19,8.90
2008,10,07,12,20,11.80
2008,10,07,12,21,14.80
2008,10,07,12,22,16.90
2008,10,07,12,23,21.50
2008,10,07,12,24,17.10
2008,10,07,12,25,17.00
2008,10,07,12,26,13.40
2008,10,07,12,27,13.90
2008,10,07,12,28,6.20
2008,10,07,12,29,5.10
2008,10,07,12,30,6.20
2008,10,07,12,31,7.20
2008,10,07,12,32,10.60
2008,10,07,12,33,15.90
2008,10,07,12,34,13.10
2008,10,07,12,35,9.80
2008,10,07,12,36,11.10
2008,10,07,12,37,9.10
2008,10,07,12,38,18.10
2008,10,07,12,39,12.70
2008,10,07,12,40,11.40
2008,10,07,12,41,6.50
2008,10,07,12,42,5.40
2008,10,07,12,43,9.00
2008,10,07,12,44,21.60
2008,10,07,12,45,11.20
2008,10,07,12,46,7.40
2008,10,07,12,47,11.10
2008,10,07,12,48,17.30
2008,10,07,12,49,15.90
2008,10,07,12,50,5.60
2008,10,07,12,51,3.20
2008,10,07,12,52,3.20
2008,10,07,12,53,15.30
2008,10,07,12,54,16.90
2008,10,07,12,55,10.30
2008,10,07,12,56,12.20
2008,10,07,12,57,9.30
2008,10,07,12,58,7.30
2008,10,07,12,59,9.10
2008,10,07,13,00,14.40
2008,10,07,13,01,20.90
2008,10,07,13,02,25.20
2008,10,07,13,03,21.50
2008,10,07,13,04,18.70
2008,10,07,13,05,13.80
2008,10,07,13,06,10.20
2008,10,07,13,07,7.30
2008,10,07,13,08,7.20
2008,10,07,13,09,6.90
2008,10,07,13,10,9.90
2008,10,07,13,11,19.20
2008,10,07,13,12,16.10
2008,10,07,13,13,11.40
2008,10,07,13,14,4.10
2008,10,07,13,15,15.80
2008,10,07,13,16,16.00
2008,10,07,13,17,20.70
2008,10,07,13,18,15.00
2008,10,07,13,19,7.80
2008,10,07,13,20,10.20
2008,10,07,13,21,5.90
2008,10,07,13,22,9.30
2008,10,07,13,23,6.60
2008,10,07,13,24,9.40
2008,10,07,13,25,16.60
2008,10,07,13,26,7.70
2008,10,07,13,27,9.30
2008,10,07,13,28,19.50
2008,10,07,13,29,10.70
2008,10,07,13,30,8.90
2008,10,07,13,31,14.70
2008,10,07,13,32,11.00
2008,10,07,13,33,10.50
2008,10,07,13,34,17.30
2008,10,07,13,35,13.90
2008,10,07,13,36,16.30
2008,10,07,13,37,11.80
2008,10,07,13,38,6.60
2008,10,07,13,39,6.00
2008,10,07,13,40,21.20
2008,10,07,13,41,19.00
2008,10,07,13,42,16.30
2008,10,07,13,43,11.90
2008,10,07,13,44,7.80
2008,10,07,13,45,9.10
2008,10,07,13,46,11.40
2008,10,07,13,47,5.30
2008,10,07,13,48,8.00
2008,10,07,13,49,6.40
2008,10,07,13,50,4.90
2008,10,07,13,51,10.70
2008,10,07,13,52,11.90
2008,10,07,13,53,4.50
2008,10,07,13,54,4.20
2008,10,07,13,55,8.10
2008,10,07,13,56,5.30
2008,10,07,13,57,1.60
2008,10,07,13,58,6.10
2008,10,07,13,59,4.30
2008,10,07,14,00,5.90
2008,10,07,14,01,9.20
2008,10,07,14,02,5.20
2008,10,07,14,03,1.90
2008,10,07,14,04,2.30
2008,10,07,14,05,7.00
2008,10,07,14,06,7.50
2008,10,07,14,07,7.10
2008,10,07,14,08,12.00
2008,10,07,14,09,8.00
2008,10,07,14,10,7.70
2008,10,07,14,11,8.20
2008,10,07,14,12,15.70
2008,10,07,14,13,11.40
2008,10,07,14,14,5.30
2008,10,07,14,15,1.40
2008,10,07,14,16,2.80
2008,10,07,14,17,5.70
2008,10,07,14,18,7.40
2008,10,07,14,19,5.80
2008,10,07,14,20,6.50
2008,10,07,14,21,10.80
2008,10,07,14,22,11.10
2008,10,07,14,23,3.40
2008,10,07,14,24,3.50
2008,10,07,14,25,4.10
2008,10,07,14,26,8.80
2008,10,07,14,27,5.90
2008,10,07,14,28,10.30
2008,10,07,14,29,8.80
2008,10,07,14,30,11.90
2008,10,07,14,31,8.30
2008,10,07,14,32,13.60
2008,10,07,14,33,8.00
2008,10,07,14,34,3.10
2008,10,07,14,35,11.40
2008,10,07,14,36,16.50
2008,10,07,14,37,6.50
2008,10,07,14,38,9.70
2008,10,07,14,39,14.60
2008,10,07,14,40,12.10
2008,10,07,14,41,9.30
2008,10,07,14,42,7.40
2008,10,07,14,43,13.90
2008,10,07,14,44,13.60
2008,10,07,14,45,5.60
2008,10,07,14,46,5.60
2008,10,07,14,47,7.60
2008,10,07,14,48,16.30
2008,10,07,14,49,17.00
2008,10,07,14,50,14.90
2008,10,07,14,51,13.90
2008,10,07,14,52,6.00
2008,10,07,14,53,6.20
2008,10,07,14,54,8.80
2008,10,07,14,55,9.10
2008,10,07,14,56,8.80
2008,10,07,14,57,6.00
2008,10,07,14,58,15.50
2008,10,07,14,59,9.20
2008,10,07,15,00,6.60
2008,10,07,15,01,7.50
2008,10,07,15,02,8.80
2008,10,07,15,03,4.40
2008,10,07,15,04,7.50
2008,10,07,15,05,6.30
2008,10,07,15,06,9.40
2008,10,07,15,07,5.60
2008,10,07,15,08,5.40
2008,10,07,15,09,4.30
2008,10,07,15,10,7.20
2008,10,07,15,11,4.60
2008,10,07,15,12,7.50
2008,10,07,15,13,5.60
2008,10,07,15,14,15.40
2008,10,07,15,15,6.00
2008,10,07,15,16,9.60
2008,10,07,15,17,13.10
2008,10,07,15,18,5.10
2008,10,07,15,19,8.00
2008,10,07,15,20,6.40
2008,10,07,15,21,6.60
2008,10,07,15,22,4.90
2008,10,07,15,23,1.20
2008,10,07,15,24,3.10
2008,10,07,15,25,5.30
2008,10,07,15,26,8.40
2008,10,07,15,27,7.80
2008,10,07,15,28,11.60
2008,10,07,15,29,11.90
2008,10,07,15,30,6.70
2008,10,07,15,31,7.40
2008,10,07,15,32,6.60
2008,10,07,15,33,7.90
2008,10,07,15,34,7.20
2008,10,07,15,35,6.70
2008,10,07,15,36,5.60
2008,10,07,15,37,3.00
2008,10,07,15,38,1.90
2008,10,07,15,39,2.20
2008,10,07,15,40,0.30
2008,10,07,15,41,4.10
2008,10,07,15,42,3.40
2008,10,07,15,43,2.90
2008,10,07,15,44,12.60
2008,10,07,15,45,11.70
2008,10,07,15,46,10.30
2008,10,07,15,47,6.70
2008,10,07,15,48,5.90
2008,10,07,15,49,10.70
2008,10,07,15,50,6.20
2008,10,07,15,51,9.70
2008,10,07,15,52,9.40
2008,10,07,15,53,3.10
2008,10,07,15,54,5.90
2008,10,07,15,55,11.30
2008,10,07,15,56,18.40
2008,10,07,15,57,19.70
2008,10,07,15,58,9.70
2008,10,07,15,59,10.80
2008,10,07,16,00,12.70
2008,10,07,16,01,13.40
2008,10,07,16,02,13.50
2008,10,07,16,03,9.90
2008,10,07,16,04,1.60
2008,10,07,16,05,4.60
2008,10,07,16,06,1.00
2008,10,07,16,07,5.50
2008,10,07,16,08,7.70
2008,10,07,16,09,5.80
2008,10,07,16,10,6.70
2008,10,07,16,11,8.50
2008,10,07,16,12,2.50
2008,10,07,16,13,7.10
2008,10,07,16,14,15.60
2008,10,07,16,15,13.80
2008,10,07,16,16,17.40
2008,10,07,16,17,10.70
2008,10,07,16,18,15.40
2008,10,07,16,19,14.60
2008,10,07,16,20,13.80
2008,10,07,16,21,16.80
2008,10,07,16,22,18.50
2008,10,07,16,23,13.40
2008,10,07,16,24,8.70
2008,10,07,16,25,13.60
2008,10,07,16,26,14.20
2008,10,07,16,27,11.00
2008,10,07,16,28,9.20
2008,10,07,16,29,10.60
2008,10,07,16,30,6.70
2008,10,07,16,31,3.30
2008,10,07,16,32,7.80
2008,10,07,16,33,6.60
2008,10,07,16,34,7.90
2008,10,07,16,35,7.00
2008,10,07,16,36,6.60
2008,10,07,16,37,13.10
2008,10,07,16,38,7.60
2008,10,07,16,39,7.60
2008,10,07,16,40,8.20
2008,10,07,16,41,12.00
2008,10,07,16,42,19.50
2008,10,07,16,43,7.40
2008,10,07,16,44,10.20
2008,10,07,16,45,10.00
2008,10,07,16,46,5.70
2008,10,07,16,47,3.90
2008,10,07,16,48,3.70
2008,10,07,16,49,7.60
2008,10,07,16,50,7.60
2008,10,07,16,51,8.50
2008,10,07,16,52,8.30
2008,10,07,16,53,8.00
2008,10,07,16,54,6.80
2008,10,07,16,55,2.50
2008,10,07,16,56,9.90
2008,10,07,16,57,12.50
2008,10,07,16,58,6.00
2008,10,07,16,59,8.80
2008,10,07,17,00,6.10
2008,10,07,17,01,5.80
2008,10,07,17,02,5.80
2008,10,07,17,03,8.10
2008,10,07,17,04,13.40
2008,10,07,17,05,13.10
2008,10,07,17,06,6.70
2008,10,07,17,07,10.90
2008,10,07,17,08,12.30
2008,10,07,17,09,5.80
2008,10,07,17,10,5.50
2008,10,07,17,11,6.80
2008,10,07,17,12,9.30
2008,10,07,17,13,9.10
2008,10,07,17,14,6.50
2008,10,07,17,15,10.90
2008,10,07,17,16,9.00
2008,10,07,17,17,9.00
2008,10,07,17,18,9.20
2008,10,07,17,19,6.90
2008,10,07,17,20,1.70
2008,10,07,17,21,12.20
2008,10,07,17,22,8.40
2008,10,07,17,23,1.20
2008,10,07,17,24,4.30
2008,10,07,17,25,4.80
2008,10,07,17,26,1.90
2008,10,07,17,27,4.30
2008,10,07,17,28,2.50
2008,10,07,17,29,2.30
2008,10,07,17,30,4.40
2008,10,07,17,31,12.00
2008,10,07,17,32,10.70
2008,10,07,17,33,11.50
2008,10,07,17,34,6.30
2008,10,07,17,35,2.20
2008,10,07,17,36,6.50
2008,10,07,17,37,4.40
2008,10,07,17,38,5.70
2008,10,07,17,39,7.70
2008,10,07,17,40,8.40
2008,10,07,17,41,6.10
2008,10,07,17,42,2.30
2008,10,07,17,43,7.70
2008,10,07,17,44,5.90
2008,10,07,17,45,13.80